Simultaneous Nadir Overpasses (SNOs) Predictions

Prediction of SNOs between GOES-15 and TERRA Satellite Orbit:

Table of predicted SNOs for the next 14.0 days since TLE Epoch: 3/1/2012
Index Date Time (GOES-15) GOES-15 Lat,Lon TERRA Lat,Lon Distance(km) Time Diff (sec)
1 03/02/2012 19:27:37 -0.04,-135.42 -0.28,-134.19 139.11 80
2 03/03/2012 07:46:20 0.04,-135.42 -0.83,-139.38 451.29 80
3 03/04/2012 19:15:26 -0.04,-135.41 -0.91,-131.24 474.28 80
4 03/05/2012 07:34:09 0.04,-135.41 -0.20,-136.43 116.23 80
5 03/07/2012 07:24:38 0.04,-135.40 0.44,-133.47 218.51 80
6 03/07/2012 19:43:14 -0.04,-135.39 0.63,-138.63 368.53 80
7 03/09/2012 19:31:02 -0.04,-135.37 0.04,-135.67 34.60 80
8 03/11/2012 19:21:31 -0.04,-135.34 -0.62,-132.72 298.53 80
9 03/12/2012 07:40:15
